NOAA 17 DEB

Satellite information

Favourite Embed

Satellite Type and Status

DEBRISIN ORBIT

Key statistics

Satellite NOAA 17 DEB at a glance.

Uptime

8574

Days in orbit

Revolutions

≈ 15.0

Per day

Orbit

SSO

Sun Synchronous Orbit

Inclination

98.9

Latest

Satellite identification and parameters

Extended collection of information and parameters for NOAA 17 DEB.

Object identification

Identified? True

Debris? True

Object name: NOAA 17 DEB

International designator: 2002-032CE

Object number (NORAD): 48745

Object ID (CCSDS): 48745

Country: UNITED STATES OF AMERICA (US)

Current information (Y/N): Y

RCS size: SMALL

Orbital parameters

Period: 96.036 minutes

Inclination: 98.8546 deg

SMA: 6946.786 km

Apoapsis: 582.735 km

Periapsis: 554.567 km

RAAN: 59.9026 deg

Eccentricy: 0.00202741

Argument of periapsis: 176.4068 deg

Mean anomaly: 183.73 deg

Mean motion: 14.99432505 rev/day

Mean motion (dot): 0.00107431 rev/day2

B* drag term: 0.0086093883 1/REarth

Two-line elements (TLE)

Creation date: Dec. 14, 2025, 3:07 a.m.

Reference frame: TEME

Reference center: EARTH

Epoch: Dec. 13, 2025, 10:16 a.m. UTC

TLE line 0: 0 NOAA 17 DEB

TLE line 1: 1 48745U 02032CE 25347.42833528 .00107431 00000-0 86094-2 0 9996

TLE line 2: 2 48745 98.8546 59.9026 0020274 176.4068 183.7300 14.99432505250380

Live tracking on map

Real-time ground track for satellite NOAA 17 DEB.

In-orbit conjunctions

A list of the most updated potential collisions computed for object NOAA 17 DEB.

Target Orbit TCA Probability of collision Miss distance Type
SPOT 4 SSO 2024-10-24 02:33:29 0.0001056789 536.0 (m) PAYLOAD

Associated space launch

NOAA M carried weather imagers and microwave and infrared sounders, as well as a SARSAT search-and-rescue package. It had an on-orbit mass of 1475 kg.

NOAA 17 DEB was lifted into orbit during the mission ‘Titan II SLV | NOAA 17’, on board a Titan II SLV space rocket.

The launch took place on June 24, 2002, 6:23 p.m. from Space Launch Complex 4W.

For more information about the launch, click the button.

Launch to space Titan II SLV | NOAA 17
Titan II SLV | NOAA 17

Agency: N/A

Status: Launch Successful

Launch date: June 24, 2002, 6:23 p.m. UTC

Rocket: Titan II SLV

Launch pad: Space Launch Complex 4W

Location: Vandenberg SFB, CA, USA

...

Latest news about this satellite

There are no fresh news available about this satellite. Check back as we update our databases every day.


Newsletter sign-up

Weekly statistics, charts and insights to help you stay on top of the space industry.